Find KUIPER-00448

NORAD ID: 68871 Int'l Des: 2026-095H Owner: KUIP Country: US Constellation: amazon-leo operational
LEOCIRCULAR

Current View

Loading 3D Globe...

About KUIPER-00448

KUIPER-00448 (NORAD 68871) is a amazon-leo constellation satellite launched Apr 28, 2026 by KUIP of US. It operates in LEO, CIRCULAR orbit with a mass of 490.00 kg.

About KUIPER-00448

Description loading...

Upcoming Passes

Passes for default location (London). Set your location on the main map for personalized predictions.

Altitude History

Loading altitude history...

Two-Line Element Set

1 68871U 26095H 26166.91668981 -.01416713 00000-0 -71624-1 0 9997
2 68871 51.8880 249.3958 0003557 346.8166 277.1440 15.19526957 4454
Epoch: Jun 15, 2026 • Age: 7 hours

Current Status

Altitude 516.8 km
Velocity 7.61 km/s
Sub-Earth Point 50.59°N, 14.09°E
Launch Date Apr 28, 2026
Age 0.1 years
Type internet

Technical Details

Classification Payload
Mass 490.00 kg
Dry Mass 490.00 kg
Total Mass 490.00 kg
Length 1.80 m
Diameter 0.70 m
Span 5.00 m
Shape Box + 2 pan
Manufacturer KUIP
Bus Type Kuiper
Phase Status In Orbit
Owner/State KUIP/US

Most Searched